GFSSGP_850_rhum_000.txt.gz
RH
43 50 48 62 58 60 68 62 54 67 65 67 62 62 80 84 72 84 79 89 91 85 85 84 77 77 80 83 82 86 84 73 65 64 57 51 48 46 43 42 48 42 45 52 50 50 52 56 59
43 46 60 66 52 72 67 55 62 57 69 70 72 78 83 86 89 76 80 86 89 89 87 86 77 75 78 83 80 78 75 54 54 53 53 52 51 47 43 47 45 41 45 49 52 57 60 61 63
47 58 62 78 51 63 63 55 63 64 68 64 76 80 86 97 84 72 76 87 91 90 87 82 74 78 78 76 74 75 57 54 54 52 52 50 47 48 50 47 44 47 49 46 50 58 62 66 67
60 57 60 40 35 38 48 56 61 64 69 67 71 88 86 84 74 64 72 81 82 80 78 74 77 78 75 77 73 73 61 58 55 55 59 56 53 51 49 47 47 49 44 46 54 59 65 67 69
56 52 45 43 46 47 46 48 55 60 70 74 75 89 94 88 66 62 69 75 72 73 75 76 77 76 77 76 69 65 66 60 56 54 55 51 49 50 51 50 47 41 42 49 56 59 60 64 64
47 46 45 49 47 50 47 46 56 70 81 83 83 83 96 88 62 65 70 72 73 76 75 75 74 72 70 67 57 53 51 49 50 58 58 54 55 54 50 45 46 46 49 56 58 58 58 58 60
54 52 48 46 57 53 50 49 69 76 78 80 79 79 98 86 67 64 71 73 74 76 73 71 69 59 60 58 56 57 58 60 63 64 62 61 57 50 46 55 61 55 60 66 61 54 65 58 53
38 40 44 41 57 53 52 58 62 66 70 77 74 88 94 85 71 66 71 76 74 73 70 66 63 57 67 67 67 64 64 64 63 61 60 56 54 53 57 70 64 64 63 61 67 74 73 75 70
35 42 45 45 44 43 51 65 62 64 72 65 66 71 73 81 76 75 75 77 75 76 74 68 66 64 64 68 70 70 65 65 66 59 56 58 61 67 56 64 63 56 71 75 71 75 75 73 76
35 40 37 35 36 49 48 56 62 66 66 69 71 68 72 82 82 78 78 79 76 76 74 70 67 66 68 67 69 66 65 61 56 55 56 60 65 75 74 73 71 77 73 73 69 73 71 68 75
33 33 32 30 30 40 45 55 56 59 71 70 74 69 78 86 88 80 73 67 66 71 89 79 70 71 66 63 62 63 63 59 57 58 59 68 71 77 75 74 74 72 77 76 75 72 73 73 68
26 26 28 26 32 41 46 46 57 54 51 51 57 54 77 80 84 81 72 69 70 66 67 69 74 68 68 69 67 65 64 60 56 56 59 73 73 74 75 76 72 69 70 76 77 77 73 71 69
16 16 25 26 28 34 40 48 56 50 54 56 62 62 73 77 74 72 64 66 69 65 61 63 66 65 63 65 66 65 61 58 63 63 62 79 81 75 77 81 77 77 75 73 74 73 75 75 71
11 23 30 32 32 36 47 53 51 56 58 69 62 69 70 71 71 73 74 74 72 65 64 66 66 66 65 64 67 66 68 66 75 77 78 82 80 75 77 81 80 78 77 77 80 79 76 76 77
23 32 32 34 35 48 41 50 56 60 61 75 81 77 76 74 81 77 71 70 64 63 64 64 62 68 69 67 73 75 82 78 75 83 81 81 78 77 81 78 79 81 82 83 81 79 79 77 66
26 32 39 33 37 44 38 55 63 63 68 79 86 88 84 77 73 69 70 66 66 68 63 68 69 72 68 75 79 74 72 73 71 76 82 76 81 82 87 83 82 86 84 86 85 82 76 68 63
27 42 38 37 34 41 44 56 63 64 66 76 83 85 86 81 82 71 68 68 69 67 64 65 72 72 72 74 75 74 81 80 78 83 81 81 79 85 86 84 86 85 89 84 78 78 76 70 62
37 39 35 44 35 42 50 55 65 62 63 70 73 75 81 79 77 72 70 68 67 68 70 71 72 72 73 76 70 73 74 86 88 90 88 87 82 81 80 84 84 90 80 74 65 62 73 68 71
27 36 33 34 30 40 52 58 68 61 60 62 64 67 72 72 62 67 67 70 65 66 71 71 74 71 73 72 74 79 77 80 84 89 89 82 83 84 86 92 78 73 74 68 67 69 60 73 73
27 29 34 26 30 35 50 53 63 62 59 60 62 63 65 66 66 64 65 68 66 62 67 68 66 67 70 69 71 77 86 92 94 91 90 91 87 88 90 76 68 67 60 54 57 56 77 77 81
19 20 22 27 37 42 50 56 63 62 58 59 60 60 61 60 62 59 59 59 63 62 62 62 64 66 71 70 74 86 95 91 82 77 76 82 72 78 74 67 58 44 50 63 67 59 66 85 84
22 17 17 28 37 46 41 55 66 56 61 55 55 58 57 57 54 51 53 56 59 57 58 59 59 63 69 70 74 79 73 62 58 51 56 59 57 77 68 47 46 59 64 74 67 55 66 78 82
16 17 20 30 37 42 50 46 45 57 64 55 49 51 53 51 51 52 52 52 54 55 56 57 58 60 64 70 72 74 67 66 66 58 57 56 71 81 65 46 58 66 76 75 60 59 66 72 72
15 14 23 33 41 47 43 44 43 72 53 46 46 48 50 51 48 47 47 48 51 53 55 56 57 51 53 64 69 70 58 67 66 59 44 40 68 69 61 57 69 76 75 62 56 63 70 76 82
15 20 27 28 48 47 42 52 34 39 43 38 43 46 48 48 49 47 47 47 49 52 56 56 55 39 40 49 48 43 40 46 54 52 29 43 57 63 62 53 63 72 66 47 54 68 74 76 71
17 20 29 25 37 40 47 57 39 26 28 34 35 42 45 49 50 47 46 47 50 51 56 48 45 33 30 34 27 24 35 30 25 31 24 33 55 55 33 35 45 56 54 52 47 61 74 76 78
15 19 17 25 30 31 40 31 22 21 27 37 34 39 42 45 48 51 47 46 50 51 53 45 36 26 22 23 22 22 27 30 19 19 13 25 39 32 37 46 42 54 64 66 60 54 50 69 77
14 17 19 28 30 33 32 26 31 24 29 34 42 40 40 41 51 51 52 46 46 46 48 50 36 19 17 21 20 22 22 21 21 17 13 14 20 31 40 48 45 53 57 58 59 56 43 44 57
17 19 23 25 29 30 29 33 28 23 28 29 39 34 35 37 44 48 46 42 42 44 48 49 44 34 19 19 20 22 28 34 35 21 13 18 24 30 38 35 38 46 61 52 45 43 56 60 62
13 16 19 19 24 33 29 25 18 24 25 36 30 34 32 31 32 36 39 43 44 45 47 48 47 41 32 23 30 25 29 44 51 26 16 20 20 21 27 32 37 44 55 53 55 50 52 61 71

GFSSGP_850_rhum_003.txt.gz
RH
58 60 71 78 46 39 54 54 47 56 56 66 66 66 80 87 65 69 86 81 84 81 82 80 72 75 75 83 86 80 74 74 71 65 58 54 48 46 44 47 43 44 52 54 53 55 57 58 61
54 53 67 61 37 43 52 47 53 50 66 67 70 72 75 79 90 90 84 81 81 78 79 82 77 74 78 82 84 77 72 69 66 62 56 52 51 49 44 48 42 46 52 54 58 61 60 61 64
52 56 63 43 38 40 48 46 54 59 63 60 69 74 75 80 91 89 83 84 84 78 79 80 79 80 82 82 83 75 60 57 58 60 54 53 53 45 47 46 46 50 54 56 61 62 61 61 62
55 58 52 29 37 39 43 47 54 60 63 68 64 68 82 91 87 77 82 86 85 82 83 78 76 78 82 83 80 64 57 56 55 52 52 50 46 50 49 47 49 50 49 55 60 60 60 60 61
49 42 28 35 40 40 39 49 56 54 62 62 64 70 83 89 71 75 86 90 87 82 79 74 76 76 78 77 76 57 59 55 54 54 52 52 52 50 51 52 48 43 46 53 58 58 58 55 57
37 37 28 34 44 42 40 49 54 61 66 70 65 67 82 82 66 78 87 92 84 77 73 75 78 75 76 70 72 65 61 56 53 54 52 50 50 54 55 50 49 50 51 59 64 60 61 56 52
34 32 36 37 45 44 42 47 51 60 64 64 64 66 93 87 68 70 78 89 75 73 75 77 76 76 73 67 62 60 53 50 54 57 55 55 58 57 47 55 63 58 62 63 61 65 69 63 55
35 26 32 35 41 39 44 49 58 55 60 70 66 67 82 83 71 72 81 95 85 79 78 76 74 74 71 66 60 57 57 58 62 61 60 61 58 52 54 68 63 63 66 68 67 74 76 73 68
37 28 29 30 38 35 46 43 60 60 67 66 69 70 67 85 83 87 96 97 92 87 82 81 78 72 66 64 65 66 63 63 62 61 61 58 58 61 61 63 70 70 66 76 72 71 74 72 77
27 30 26 23 28 34 45 42 56 61 59 59 72 80 77 93 91 90 94 96 97 95 84 87 70 63 72 70 66 62 63 66 64 61 58 58 59 66 74 75 71 75 73 71 72 69 72 68 68
26 26 23 24 28 35 42 47 52 54 54 55 68 85 88 92 90 89 88 90 91 89 90 81 71 67 68 71 70 67 63 61 59 58 57 56 63 72 76 76 76 70 72 76 74 71 69 67 66
22 21 22 24 33 35 38 44 47 51 42 49 67 78 87 89 88 86 86 90 90 76 80 74 69 69 69 67 68 65 63 60 58 56 57 56 71 75 76 77 76 75 75 71 73 73 66 68 69
16 13 19 24 32 33 40 43 42 51 48 56 65 82 84 86 88 88 87 87 73 68 85 77 69 75 74 68 64 64 64 63 60 56 53 57 77 75 72 79 78 75 76 73 75 76 74 73 71
12 15 18 25 32 36 36 44 42 46 61 69 76 79 82 85 86 92 95 95 91 69 69 68 65 67 67 64 63 62 61 60 58 63 58 63 77 79 77 77 79 78 77 76 76 76 77 78 71
25 27 28 31 32 36 39 50 44 48 65 70 73 77 82 84 88 91 91 92 85 69 64 60 62 64 63 61 62 64 62 64 63 71 78 78 81 74 72 76 76 75 76 77 81 83 82 74 64
23 25 28 31 33 40 31 30 39 56 60 64 68 74 81 82 84 86 86 67 65 72 64 62 63 63 66 62 66 69 76 81 79 75 78 81 79 79 76 77 80 80 84 82 87 82 75 71 67
25 24 28 34 31 39 33 31 39 55 56 59 65 67 73 80 83 86 82 64 63 63 63 61 63 62 66 64 75 73 69 69 72 72 78 78 77 78 77 79 83 81 85 83 85 71 62 61 67
23 27 27 29 33 36 37 34 48 56 54 56 63 67 72 75 79 86 82 72 66 66 66 62 65 70 70 68 73 73 71 76 77 79 82 85 84 84 82 78 83 83 81 79 76 72 71 76 64
17 23 24 28 28 32 35 34 46 54 55 53 60 67 69 68 71 78 69 70 68 68 71 68 67 70 74 75 74 76 73 70 71 74 80 85 85 81 80 82 86 88 70 68 67 71 73 87 65
22 23 24 26 27 28 35 34 37 50 52 51 54 61 65 67 73 78 79 71 72 70 68 71 72 73 76 77 71 70 66 69 77 83 88 84 86 81 83 87 86 66 62 56 57 66 74 73 70
16 21 23 24 26 32 33 32 41 48 50 53 53 53 56 60 65 71 77 76 65 66 68 67 68 64 69 74 75 74 74 77 77 83 87 84 86 84 74 72 64 53 39 63 64 70 63 89 77
14 17 19 26 27 31 28 31 35 37 50 49 50 52 54 56 61 62 69 66 65 57 62 64 67 63 65 70 76 77 74 84 92 81 81 76 81 68 70 74 51 38 53 52 58 54 57 69 93
14 14 18 22 24 28 36 32 21 42 45 46 46 47 50 51 54 57 62 54 50 51 54 60 63 63 65 67 75 78 78 91 90 76 66 66 64 55 73 66 42 47 55 59 61 49 52 53 65
14 16 20 24 21 26 20 28 19 39 37 32 35 43 46 48 51 54 54 46 46 49 52 55 59 59 61 64 69 75 76 83 78 71 66 66 58 62 80 63 47 59 60 65 53 49 52 61 66
14 14 20 23 28 23 21 33 21 20 25 25 26 38 41 45 49 52 56 52 46 49 49 53 56 57 57 60 63 66 71 78 63 52 56 55 41 46 53 59 43 54 71 62 49 56 69 70 67
15 12 18 27 24 19 34 30 20 20 18 25 29 31 38 41 43 48 49 40 43 46 48 50 56 56 53 51 51 53 58 61 38 32 39 39 38 41 57 53 42 52 65 60 51 54 63 70 68
15 18 11 16 22 19 19 26 20 19 21 22 26 30 36 39 41 45 47 42 40 44 46 48 56 54 43 36 42 48 54 51 35 30 39 36 28 42 50 34 41 44 52 55 57 61 52 52 70
11 11 15 17 26 26 19 23 14 19 19 20 27 28 31 38 43 45 48 40 38 40 43 45 48 50 30 31 33 36 38 29 26 27 34 36 18 42 33 31 44 46 43 48 61 64 62 48 51
11 13 16 14 16 20 21 17 18 21 23 19 22 25 28 37 42 45 52 42 33 36 41 44 46 48 44 26 24 27 26 23 26 29 12 13 20 12 24 30 42 43 42 44 42 43 43 39 52
7 11 13 15 24 18 17 14 13 17 16 17 16 21 27 38 38 46 52 54 44 38 38 42 47 48 45 31 22 22 24 23 17 18 60 15 15 32 21 30 36 33 42 46 48 52 66 58 51

GFSSGP_850_rhum_006.txt.gz
RH
56 78 93 90 53 31 55 52 36 43 47 54 61 53 60 71 49 64 84 97 99 98 95 76 82 82 83 83 81 75 64 64 58 55 55 51 47 50 50 47 47 49 52 52 56 56 56 59 62
84 88 80 50 26 35 39 34 38 39 45 50 57 60 49 62 73 83 82 92 94 83 85 93 75 77 82 80 77 73 68 70 60 54 53 50 47 44 49 47 44 49 52 55 58 54 56 61 62
68 70 47 22 19 31 38 35 40 43 44 44 50 52 50 63 68 65 80 85 81 86 84 83 70 74 79 80 74 71 70 65 62 58 51 48 48 44 51 48 50 53 53 52 53 56 57 58 60
58 51 37 19 20 26 32 35 40 42 44 46 46 51 61 60 66 69 81 82 80 91 99 74 77 80 81 80 72 65 63 61 59 52 50 49 45 48 50 48 52 47 44 48 54 56 57 52 55
48 31 17 18 23 23 26 35 37 36 40 43 41 48 62 72 73 77 82 80 80 83 93 90 80 80 80 77 60 54 54 53 51 50 48 44 49 50 50 51 46 46 47 54 59 58 57 52 50
28 23 16 19 23 24 26 35 37 38 44 47 43 54 62 75 75 78 80 83 79 80 90 95 77 78 78 72 54 58 55 53 50 48 48 51 50 54 54 52 60 56 58 68 64 60 64 54 46
22 18 20 19 24 25 27 31 32 38 44 42 44 46 66 70 76 79 81 81 79 81 91 92 92 81 72 73 57 56 58 54 54 52 50 49 55 54 54 67 67 66 65 63 69 72 71 68 55
24 17 19 20 22 23 24 30 34 33 40 44 44 48 60 65 76 76 77 79 84 80 85 98 100 98 97 76 69 64 60 54 58 58 58 60 58 54 55 67 69 59 68 73 68 70 68 70 66
27 20 19 19 22 24 26 27 36 38 46 47 46 43 52 64 72 74 81 84 84 83 84 87 94 97 97 93 68 56 54 57 61 64 59 66 82 89 89 77 72 68 71 74 65 67 67 67 76
19 19 17 15 17 22 26 25 35 39 41 42 50 49 57 66 71 71 74 78 78 81 82 80 84 98 94 86 93 97 90 86 86 86 88 86 89 91 81 84 68 68 68 71 70 68 71 83 77
14 18 16 16 16 20 26 28 32 29 35 35 45 53 60 64 69 68 69 70 71 76 78 95 85 98 91 88 90 88 85 82 88 94 89 88 91 88 87 85 85 86 74 82 85 86 81 93 86
13 12 12 15 19 20 23 25 31 29 27 32 40 52 60 63 63 64 65 67 68 74 76 80 87 94 91 91 90 85 80 82 81 85 79 92 84 91 94 86 93 77 85 90 91 83 94 93 86
10 9 10 11 17 17 22 25 26 30 34 36 44 55 57 58 60 60 61 64 68 74 76 79 86 99 98 99 86 84 85 84 78 84 90 87 84 85 89 84 85 80 92 87 91 92 91 95 89
9 9 10 10 15 20 23 26 30 29 32 41 48 53 54 56 58 61 62 64 69 73 76 78 86 95 97 96 96 93 91 83 83 79 83 61 82 86 92 94 93 94 92 90 92 91 92 95 89
10 13 17 16 17 22 23 31 31 30 37 44 48 51 52 55 57 62 64 67 71 73 75 78 86 92 100 99 98 96 86 86 80 82 94 73 79 80 75 91 95 90 92 73 90 98 98 84 79
11 12 16 18 21 25 24 22 26 34 37 43 46 50 52 54 56 61 64 67 70 74 80 85 80 84 95 95 96 92 86 85 83 80 87 82 90 80 92 92 92 92 83 96 95 92 86 73 71
12 15 14 23 22 27 26 21 25 33 34 37 43 45 50 54 58 62 64 67 68 78 83 88 88 86 91 95 95 95 92 89 91 93 89 93 81 77 93 95 94 89 92 88 93 89 85 71 66
15 15 13 16 24 25 26 21 27 32 32 32 41 43 47 49 54 59 64 67 71 76 86 90 89 92 95 93 90 90 91 93 89 86 89 78 82 97 84 98 92 82 87 93 92 90 79 79 72
10 13 14 13 19 24 21 21 23 33 32 31 36 42 43 44 47 55 64 67 70 75 85 92 92 94 94 89 89 85 79 82 86 84 92 92 90 82 74 93 96 92 88 91 92 83 76 68 74
11 12 13 13 19 21 19 22 21 24 32 30 32 37 43 43 45 55 62 63 65 73 82 91 95 96 86 92 89 79 81 75 85 83 97 94 98 92 88 92 90 85 78 95 88 88 74 70 75
11 12 13 16 20 20 18 23 20 19 27 32 31 32 37 41 43 50 55 59 62 68 81 88 94 96 91 86 91 95 89 87 89 86 94 95 92 92 79 79 80 91 62 63 88 87 86 66 82
13 9 11 14 19 24 20 23 17 17 25 28 33 32 32 38 43 45 52 57 60 65 75 86 92 90 92 84 86 87 81 70 65 70 69 84 96 94 92 93 91 49 66 83 84 84 86 70 67
11 9 11 12 16 18 21 24 17 18 20 23 27 31 30 30 37 43 48 52 57 62 69 79 75 66 82 91 87 90 90 68 69 71 86 93 87 92 88 89 56 44 70 91 89 90 92 80 72
8 10 11 12 14 21 18 20 16 15 18 15 18 25 29 28 31 38 44 48 54 58 65 73 74 58 66 90 94 94 85 80 69 79 78 74 76 86 92 87 58 50 77 89 86 69 82 66 84
9 13 20 21 19 20 16 19 17 10 10 12 10 15 26 28 29 34 40 45 52 57 61 68 67 54 59 66 89 94 96 93 89 87 78 66 67 71 87 70 61 79 89 89 71 53 85 82 83
10 11 16 24 19 17 15 20 15 11 10 9 9 13 20 27 27 30 36 41 50 55 60 66 70 52 55 59 60 63 80 91 87 83 71 68 66 65 73 58 68 73 86 87 58 74 81 82 82
10 12 10 13 12 13 11 14 11 10 12 11 12 15 18 24 26 27 33 38 44 52 58 59 58 52 52 60 55 54 59 67 80 80 90 76 77 64 84 51 60 74 88 83 79 74 84 81 82
7 9 13 12 23 22 15 14 15 13 10 9 10 14 17 22 26 26 30 35 40 46 52 55 53 51 56 62 50 47 51 52 65 89 87 58 78 61 84 58 50 42 72 82 70 76 79 83 67
8 9 12 11 13 17 19 15 10 12 11 10 8 13 14 19 25 27 28 31 39 41 45 52 61 66 55 59 42 38 55 70 44 61 41 56 58 43 41 45 43 57 30 78 88 82 73 77 77
6 9 11 15 21 14 14 12 7 8 9 8 7 7 8 15 22 28 29 32 36 41 40 44 50 59 64 42 36 40 62 61 54 33 32 16 40 24 17 28 39 56 52 81 92 88 72 74 74

GFSSGP_850_rhum_009.txt.gz
RH
53 68 99 99 88 69 54 40 36 40 42 48 46 51 58 57 64 77 86 94 90 88 92 77 74 76 74 68 65 64 63 60 58 59 54 48 49 50 44 44 48 48 49 48 50 54 57 57 63
77 84 90 53 37 82 51 41 56 36 45 44 43 44 45 59 58 81 85 84 84 74 81 87 77 83 80 76 71 66 64 59 56 56 50 44 43 49 44 43 46 49 48 48 52 55 54 57 58
69 63 66 38 36 38 40 34 31 32 34 37 37 42 53 56 57 65 74 71 72 77 82 77 79 80 79 78 70 67 64 54 54 54 48 45 45 48 47 48 52 46 44 48 53 55 52 53 55
56 47 38 14 19 25 31 26 28 29 32 35 39 41 46 47 56 60 62 68 74 79 87 68 74 79 78 72 70 69 64 60 55 53 47 47 46 51 49 52 44 40 42 50 56 54 54 51 55
46 32 24 15 18 20 24 24 25 28 29 32 37 43 49 52 56 60 62 67 72 81 82 72 75 78 78 66 62 62 58 57 52 48 49 47 50 52 53 50 48 48 51 60 58 54 59 46 50
36 18 18 15 16 17 21 24 24 25 30 33 38 44 52 55 58 59 63 69 74 77 75 78 74 76 74 62 56 51 50 50 50 49 47 50 50 54 53 54 64 57 60 58 60 66 65 57 52
27 27 19 14 17 16 18 21 20 24 29 31 40 41 53 54 56 59 69 73 72 74 78 88 88 75 71 56 54 54 54 52 50 48 50 49 52 51 48 67 61 64 64 65 63 69 68 66 58
20 18 14 21 15 16 16 18 20 23 27 32 35 42 50 54 55 64 71 72 71 69 75 76 87 96 94 63 55 58 54 51 52 50 46 48 51 48 58 70 72 63 62 72 61 62 60 61 62
16 26 18 17 29 16 16 16 20 24 28 30 32 38 47 54 53 60 68 73 74 71 73 69 75 86 93 94 73 58 55 51 57 58 57 53 80 85 81 84 69 69 70 69 62 60 62 78 74
15 54 20 11 23 15 16 16 20 23 27 29 33 38 50 55 52 56 63 63 62 69 69 68 80 81 81 74 80 90 83 83 84 85 76 74 79 80 68 80 68 63 60 64 67 65 73 74 73
11 28 17 12 13 16 15 16 18 19 24 27 32 41 50 54 52 52 58 53 53 56 62 72 77 76 72 71 79 77 76 75 77 82 84 75 78 77 76 76 88 75 70 92 81 81 78 78 74
11 12 11 12 14 15 15 16 17 17 18 24 31 39 47 51 51 48 50 50 52 57 60 68 82 79 74 75 69 68 65 65 66 74 90 82 81 75 75 83 82 75 82 74 83 73 80 83 79
9 10 9 10 12 12 16 17 16 17 18 24 31 37 43 47 49 47 46 47 49 55 58 61 70 80 83 75 68 65 64 63 62 68 79 83 74 72 74 86 83 82 78 81 78 78 77 79 83
8 8 8 9 9 12 15 16 19 18 20 25 33 36 40 42 45 47 47 47 49 53 56 59 70 86 83 82 88 76 68 70 63 66 67 82 79 81 86 86 83 81 75 78 80 79 84 81 70
8 9 10 10 9 12 14 16 17 18 24 26 32 35 36 39 41 45 48 49 52 55 58 61 67 79 87 89 87 83 73 67 68 63 74 83 87 92 85 82 83 76 74 81 86 88 78 64 58
8 9 12 10 10 12 14 19 17 20 22 23 29 34 35 37 38 43 46 48 52 55 61 65 62 67 82 94 91 81 72 73 66 67 72 84 92 95 96 81 83 75 87 85 86 88 86 63 56
10 12 12 13 11 14 16 26 17 21 20 22 25 30 34 37 39 43 46 49 50 59 64 68 67 65 74 85 83 80 74 75 77 76 74 88 83 93 96 79 78 86 85 88 87 87 76 62 58
13 12 11 17 12 15 16 23 18 21 20 19 23 25 31 34 38 42 47 49 53 58 65 73 73 72 75 78 82 81 72 86 81 84 70 81 88 90 93 81 92 87 85 85 92 85 73 72 68
10 10 11 10 10 14 16 16 18 20 21 19 21 23 27 31 34 39 46 49 53 58 67 74 79 80 83 89 87 85 76 74 70 66 82 85 76 93 86 91 89 92 81 88 76 77 65 64 64
9 10 11 10 11 13 15 17 15 20 20 21 21 22 24 27 30 38 45 48 51 58 64 73 80 84 87 92 87 77 68 66 62 66 72 83 88 94 90 92 79 83 77 79 84 84 74 60 64
9 10 10 11 16 14 15 18 16 15 20 22 21 22 23 24 25 34 42 47 50 55 64 72 79 82 88 83 81 80 80 69 72 69 81 83 88 92 96 92 80 92 70 49 77 82 78 65 65
10 8 9 9 17 21 13 20 17 14 15 20 21 22 22 23 25 28 40 46 48 53 63 70 77 82 87 83 82 83 78 67 57 57 57 69 96 86 93 98 90 82 59 68 76 77 73 67 59
9 7 9 9 13 22 13 16 17 13 15 16 18 22 21 21 24 27 34 41 46 50 58 70 79 84 86 86 80 80 78 60 58 54 59 72 86 85 82 89 89 88 64 76 82 85 65 82 68
6 8 9 9 10 16 15 17 16 19 14 13 14 18 22 22 22 27 29 37 43 47 54 65 78 82 83 87 75 77 76 65 56 58 64 72 74 84 84 83 90 86 72 84 87 92 90 72 76
7 9 14 16 14 15 11 16 25 11 11 11 10 12 16 22 21 24 30 34 41 46 52 60 72 80 84 91 86 79 84 82 72 74 71 66 60 65 75 86 93 87 72 87 88 93 87 88 82
7 8 12 21 17 14 11 14 12 10 8 9 9 8 10 18 22 21 26 32 40 45 52 59 67 81 78 88 83 84 82 81 75 77 69 69 61 60 67 77 88 88 83 90 91 77 79 79 83
6 9 8 11 11 13 11 11 9 10 10 8 9 8 8 13 19 21 23 29 35 42 50 57 63 72 75 86 84 82 84 80 73 70 70 73 64 59 67 88 90 90 80 88 84 64 80 72 82
5 5 10 10 20 19 12 12 12 12 11 9 9 8 8 10 17 20 22 27 32 40 47 56 63 71 70 79 84 87 90 86 74 78 74 76 68 62 62 84 82 73 58 62 57 75 76 80 78
6 6 7 9 11 15 16 13 8 11 11 10 9 8 8 10 15 19 21 25 30 35 41 50 57 65 67 74 77 81 84 87 81 68 74 76 71 76 72 56 42 32 57 30 19 74 70 79 84
5 6 6 11 18 12 13 11 7 7 8 8 9 8 8 8 13 18 20 23 27 32 36 41 48 54 65 69 73 72 67 74 80 74 79 75 72 77 55 25 16 32 34 50 34 27 69 75 79

GFSSGP_850_rhum_015.txt.gz
RH
64 71 90 91 95 93 81 69 59 48 49 50 48 60 70 72 65 87 91 84 84 86 79 81 77 67 60 57 45 50 56 52 49 47 50 46 42 47 48 48 47 51 53 56 58 55 57 56 64
66 72 91 79 90 91 70 57 62 45 49 47 58 64 68 79 86 93 94 84 78 76 77 78 68 62 55 48 46 51 54 52 49 49 46 42 42 46 47 43 40 46 52 55 55 51 52 56 57
68 84 88 97 89 80 70 49 40 46 51 49 55 55 71 84 90 90 84 83 76 73 72 70 63 60 54 52 48 49 52 52 48 43 42 46 45 46 43 40 40 45 53 58 54 51 46 56 58
88 90 88 90 73 56 44 42 43 46 48 49 49 60 74 80 85 78 85 85 82 68 66 66 64 63 60 56 52 50 53 54 48 44 43 47 46 46 42 49 44 50 58 59 60 45 42 56 58
57 77 97 87 47 40 35 45 38 40 43 50 56 62 68 66 71 81 79 83 75 72 71 71 66 63 61 61 56 54 53 53 50 45 44 47 46 45 51 57 52 56 56 62 61 59 50 58 56
68 81 72 49 31 26 30 39 43 41 48 52 54 60 66 71 75 72 77 80 76 72 72 71 71 68 62 62 61 54 52 52 49 44 43 46 47 46 59 55 54 60 63 59 62 60 56 53 60
63 63 51 48 23 29 33 37 40 40 49 52 53 62 68 70 68 72 68 72 75 67 72 71 67 68 63 62 62 59 54 52 46 46 44 46 48 51 66 70 64 64 63 56 57 60 72 60 67
45 44 66 50 38 24 24 32 37 37 46 52 52 61 70 69 63 63 72 76 73 65 68 71 68 60 59 57 56 53 50 47 46 44 46 49 71 75 78 78 74 66 62 55 66 75 75 71 63
39 44 70 47 31 18 20 32 35 41 47 51 47 54 62 64 62 63 71 74 78 76 63 66 67 58 53 48 46 45 44 43 43 44 42 64 71 71 89 78 85 71 64 66 64 72 74 76 72
28 40 41 29 23 18 18 31 34 39 44 47 48 54 61 62 66 60 62 73 80 75 73 70 66 55 49 46 46 45 43 44 44 44 54 74 70 78 80 73 63 75 69 52 66 69 72 69 69
26 32 24 23 22 21 17 17 22 35 44 43 49 58 63 61 63 59 59 61 68 65 79 78 65 58 53 47 48 46 45 48 48 54 67 74 70 72 81 71 63 74 48 62 60 70 74 69 67
27 19 19 22 18 16 17 16 22 22 34 40 46 54 58 54 64 60 57 65 64 71 74 78 64 68 79 71 64 45 56 55 63 64 61 65 76 73 73 67 74 71 74 72 73 78 83 76 70
15 17 17 19 18 18 15 16 21 23 35 41 43 47 59 56 52 52 55 57 55 67 70 71 62 64 79 79 65 64 67 64 68 69 72 70 66 70 77 72 74 72 75 74 74 75 70 66 65
12 11 13 12 21 16 18 19 20 27 39 42 43 43 54 54 51 54 59 59 57 67 63 63 61 58 68 71 67 76 76 74 72 73 72 75 67 62 63 76 75 78 69 82 68 68 64 60 68
10 12 10 9 8 18 22 30 36 24 32 42 45 45 44 48 51 49 44 55 57 61 61 62 62 64 64 64 73 75 72 69 65 66 69 68 72 71 64 69 75 71 80 77 72 66 70 70 61
12 11 14 10 10 10 22 40 27 21 31 38 44 45 45 43 42 43 42 50 50 50 62 61 63 68 62 59 69 74 68 65 62 68 66 77 75 62 70 67 71 81 80 80 78 76 74 71 64
12 15 14 12 9 13 26 41 21 19 28 32 38 41 43 43 41 41 41 44 49 50 57 60 66 67 67 64 60 69 64 64 64 67 74 75 77 69 69 73 74 90 79 88 79 72 78 68 58
16 14 12 13 12 14 27 33 29 21 24 28 33 35 38 41 41 40 38 42 46 49 52 56 63 67 70 68 61 57 63 60 61 63 69 73 70 72 70 73 69 74 85 80 76 64 73 66 60
11 12 12 11 12 32 35 34 33 21 25 27 31 32 35 36 36 40 41 41 45 48 51 54 59 61 68 71 71 66 63 68 69 68 68 69 65 70 70 72 65 69 73 68 67 71 53 63 62
10 12 13 11 13 29 36 34 26 21 19 27 27 30 32 35 34 38 40 42 44 47 48 52 56 58 69 71 70 71 75 76 69 63 57 69 70 76 71 70 66 70 84 86 70 55 44 67 62
10 12 12 13 14 24 33 39 37 26 23 24 25 27 30 32 34 34 39 41 44 46 50 51 55 58 65 73 77 77 70 77 75 77 72 75 76 65 65 64 69 69 90 79 66 49 60 67 62
14 10 10 11 12 28 25 43 46 39 42 37 31 23 27 30 32 33 38 40 43 44 47 51 54 60 63 71 79 76 68 63 66 74 66 62 65 61 72 67 70 76 89 79 49 48 41 68 69
9 10 10 11 13 23 20 25 39 42 49 40 32 22 22 26 29 33 36 39 41 44 46 49 54 60 65 67 69 73 66 60 69 71 68 68 65 72 73 80 71 72 74 57 52 38 20 58 63
5 8 11 12 13 20 22 23 30 48 46 44 28 20 21 22 24 25 31 37 40 43 47 49 52 57 62 68 70 69 66 66 70 67 64 63 65 75 69 72 80 74 50 23 47 57 54 49 62
6 9 15 19 20 23 21 23 25 20 24 23 24 22 22 23 24 25 34 39 40 42 47 50 51 54 60 65 68 70 69 73 64 54 60 60 67 71 72 74 70 60 41 18 23 19 26 36 49
7 7 12 26 24 20 17 19 23 16 19 18 20 24 23 25 23 24 24 34 39 41 45 49 51 54 58 63 68 69 70 72 65 55 75 72 63 64 70 72 65 46 38 16 30 31 22 29 22
9 9 7 12 16 22 16 15 12 16 18 18 19 24 26 21 19 24 25 31 38 41 41 46 54 56 56 60 66 66 70 71 61 59 70 74 68 70 65 61 66 66 64 26 24 25 24 28 46
6 8 10 8 15 20 16 19 22 22 21 25 26 22 19 15 18 24 26 28 32 36 38 43 50 54 55 58 64 66 57 67 60 57 65 70 69 64 63 63 64 66 64 57 22 24 29 43 50
9 8 8 9 11 16 23 17 14 19 23 25 21 19 20 17 17 23 24 26 28 38 39 42 48 55 59 57 60 66 58 59 64 57 58 60 75 72 66 62 64 64 63 58 22 21 32 40 52
8 10 9 13 18 19 13 14 12 10 20 19 18 17 17 16 19 21 24 28 32 37 41 42 45 49 55 56 59 61 62 54 64 59 57 56 60 73 75 68 64 64 62 58 34 19 29 34 45

GFSSGP_850_rhum_021.txt.gz
RH
76 87 91 93 96 92 86 67 60 60 58 62 57 61 82 94 78 91 95 93 85 80 80 80 79 65 54 55 51 53 47 41 41 40 43 43 45 45 46 50 54 56 54 53 55 56 67 70 70
79 93 81 86 95 93 80 65 71 57 68 63 66 72 79 87 96 96 92 90 86 76 81 80 72 54 56 58 56 51 43 42 40 39 42 45 43 39 40 51 55 53 54 48 55 61 64 73 76
85 64 72 92 96 90 71 56 71 63 62 60 70 74 80 97 99 95 82 86 84 77 82 81 63 49 51 54 50 46 43 41 38 40 45 45 41 48 45 54 57 59 53 45 56 63 65 74 76
73 63 85 92 78 63 55 58 55 62 63 61 74 83 88 88 91 83 86 88 83 80 82 74 50 44 47 50 48 45 44 43 42 42 46 45 53 53 51 56 60 63 56 52 58 63 69 75 81
75 77 91 90 61 57 48 53 55 58 60 61 69 87 97 90 75 78 80 80 79 81 77 68 53 42 46 50 48 46 42 38 41 44 47 51 59 60 59 64 64 63 61 57 61 65 69 71 74
87 86 82 69 50 43 50 54 53 63 71 75 79 80 92 81 72 72 73 74 75 72 63 56 54 46 43 48 48 47 42 40 39 46 50 57 63 62 65 68 66 60 59 59 60 67 75 80 78
76 86 66 53 58 55 52 51 56 66 61 65 68 85 96 77 69 69 70 72 70 62 58 55 51 47 43 43 46 48 46 42 40 47 49 57 73 71 69 68 64 56 57 68 69 72 74 77 77
72 60 63 51 58 52 50 51 57 59 59 64 62 86 93 76 70 70 68 67 66 62 59 57 53 52 48 44 46 46 50 44 42 46 50 57 78 73 67 64 61 56 58 74 76 81 78 80 75
65 61 64 50 49 52 48 55 57 55 65 60 65 62 65 70 77 79 82 79 73 69 62 60 59 59 57 52 49 46 48 45 41 45 57 72 72 68 68 71 60 57 68 72 76 72 69 73 79
66 64 50 38 37 48 46 52 53 60 62 64 67 59 69 85 83 84 89 87 76 73 71 67 63 58 58 58 50 45 46 42 40 43 63 68 69 65 66 70 62 58 65 72 70 68 66 70 73
56 62 35 30 30 42 46 49 50 60 64 66 68 73 79 86 84 83 85 80 70 68 69 65 63 59 56 54 51 47 43 40 40 42 64 71 72 71 75 68 73 61 59 69 69 69 65 70 63
36 41 38 28 29 41 45 46 50 54 50 53 43 57 70 84 82 77 76 76 70 69 68 68 62 58 52 50 45 41 39 38 40 48 61 70 69 70 71 68 70 68 72 70 65 66 66 66 59
36 29 22 22 25 35 42 48 48 52 50 53 58 66 74 78 77 72 68 70 72 72 65 64 63 53 48 41 38 38 39 40 42 56 59 66 67 70 73 68 70 72 73 67 68 69 69 71 67
16 17 17 16 22 26 42 47 46 51 54 65 69 70 71 68 71 76 74 66 72 71 69 63 60 49 44 40 42 41 44 49 52 64 67 70 68 71 74 68 66 69 68 72 68 72 74 74 71
13 18 16 15 15 28 37 47 51 48 57 66 69 71 71 65 67 68 62 62 67 68 69 56 52 49 44 42 57 44 58 57 70 66 68 72 70 75 79 74 71 72 72 73 76 78 76 76 59
14 15 17 13 14 24 30 44 44 47 58 65 67 70 70 67 66 60 60 61 52 59 67 66 63 59 55 47 63 59 69 70 72 65 67 73 79 77 79 77 73 71 76 76 80 79 73 73 62
19 22 18 16 13 29 27 36 47 50 58 63 65 68 69 68 66 59 59 56 52 56 58 68 68 63 60 54 67 68 72 67 70 68 68 71 78 81 79 77 70 72 77 77 72 72 65 70 65
21 19 17 16 18 28 34 36 48 50 59 62 64 67 69 70 62 57 56 54 54 52 53 60 68 65 62 60 66 67 76 76 72 68 68 70 73 80 78 69 68 72 66 71 67 76 69 71 61
15 16 17 16 15 28 30 37 50 48 51 61 64 65 67 66 55 57 56 51 54 53 56 57 66 67 65 64 70 71 73 81 75 71 67 67 69 74 75 73 74 73 70 72 66 67 77 50 55
16 17 16 14 13 21 27 35 41 48 49 50 57 63 63 63 65 55 57 53 54 53 55 56 60 65 64 64 66 65 64 73 71 72 66 66 70 73 76 69 76 70 69 72 72 71 70 47 64
16 17 15 15 14 22 38 40 39 48 46 47 49 52 56 58 58 56 55 52 54 56 54 56 56 61 64 65 67 66 65 67 69 70 65 66 70 74 68 71 78 68 68 69 75 71 65 56 64
24 14 13 12 15 19 30 52 46 41 53 49 49 50 50 50 51 50 52 52 49 46 47 52 55 57 64 64 67 66 66 66 65 64 65 63 67 70 69 74 77 69 70 64 64 78 54 56 62
18 13 14 14 16 18 21 37 39 41 46 45 43 46 49 49 48 48 48 47 45 44 43 46 50 53 58 64 66 66 67 67 65 54 61 64 67 63 68 76 79 75 74 67 64 72 51 53 61
14 13 12 16 21 27 16 26 26 54 37 37 34 38 42 45 46 40 42 45 43 45 42 42 46 50 54 58 61 63 64 66 66 65 62 65 68 68 73 76 77 80 77 67 55 47 47 36 58
15 17 24 21 24 22 16 29 17 32 30 29 32 32 35 38 42 41 44 46 48 46 42 42 43 47 51 54 56 58 62 62 62 65 64 62 66 66 70 76 77 75 60 56 44 25 29 39 34
18 17 29 24 26 20 20 28 22 18 24 25 25 27 31 35 37 38 38 40 42 42 45 43 42 44 48 51 53 54 56 59 62 65 65 61 61 69 69 68 72 73 70 69 56 26 22 31 35
15 18 14 16 22 23 24 20 18 18 22 27 26 25 28 32 34 35 34 37 38 45 44 41 41 43 44 46 49 53 54 57 62 64 64 65 58 66 64 65 64 69 72 69 59 31 18 23 25
14 13 14 20 21 21 18 20 20 21 17 28 34 29 28 30 31 31 34 33 31 36 37 38 38 38 40 42 46 50 50 54 59 64 59 57 58 68 66 62 64 69 72 68 53 43 19 21 25
16 16 14 15 17 17 19 14 12 17 22 26 33 30 27 28 28 28 28 29 32 36 42 36 38 41 40 42 44 48 50 53 59 64 58 48 57 65 65 62 69 70 72 63 66 66 61 28 21
12 13 16 18 19 21 13 13 11 12 12 22 23 19 18 25 26 24 23 29 31 35 38 40 37 35 40 39 42 43 45 50 55 61 64 43 55 60 59 67 71 72 74 63 63 64 67 65 44

GFSSGP_850_rhum_024.txt.gz
RH
82 87 94 99 99 95 91 72 58 63 62 67 59 64 77 96 80 89 98 89 82 83 82 84 84 65 47 50 50 48 46 42 44 44 44 45 46 47 50 51 48 48 64 72 69 68 70 72 68
79 95 95 89 91 92 82 71 66 60 72 66 70 77 82 90 95 97 99 89 80 78 81 84 80 53 43 45 48 46 43 42 44 44 45 43 41 43 50 53 53 49 55 65 75 73 74 75 74
87 82 85 89 91 88 74 66 69 65 67 64 75 78 85 98 96 98 90 86 79 80 79 82 66 54 50 52 50 43 43 39 40 43 44 43 46 46 55 59 62 50 54 64 70 69 71 73 72
80 74 84 84 74 67 62 65 61 68 65 68 75 88 94 96 94 88 88 80 77 82 79 74 56 58 56 53 46 43 41 38 43 45 44 55 50 53 57 64 66 58 58 63 67 68 69 70 76
86 82 85 84 68 58 55 57 61 62 62 71 75 92 98 99 87 85 88 84 76 81 80 65 51 52 53 48 44 44 41 43 44 46 53 58 56 58 62 62 67 64 63 63 66 71 75 76 76
81 80 84 72 53 46 54 57 61 68 76 80 80 84 99 90 81 84 86 82 78 78 79 57 47 48 49 45 45 42 41 44 45 48 58 56 59 62 64 61 64 66 65 65 71 78 77 74 75
70 82 71 60 59 56 57 55 67 68 69 74 74 91 100 85 83 83 84 81 79 75 72 62 42 46 48 46 46 42 41 41 46 47 56 64 68 68 67 64 61 62 68 68 74 74 74 72 70
80 69 64 65 64 55 55 54 61 60 65 70 66 92 96 80 78 77 78 77 72 68 64 57 48 42 45 47 45 45 42 42 44 49 61 78 74 72 65 62 58 61 74 74 74 80 75 68 68
76 74 71 52 54 46 54 61 60 60 66 65 65 59 68 74 75 76 78 78 73 64 57 51 48 44 41 41 44 46 47 43 43 50 65 73 72 71 71 60 56 66 76 80 73 69 70 72 68
85 78 57 41 39 52 54 57 59 65 64 66 70 66 66 72 74 74 76 74 66 60 59 54 48 43 43 42 43 44 48 46 42 48 68 76 72 66 70 64 56 58 69 76 73 65 70 73 68
74 80 50 34 30 42 53 53 54 63 68 67 77 70 73 73 74 70 68 63 59 60 61 58 55 53 54 50 46 45 46 46 43 46 71 66 69 69 74 68 68 58 64 73 74 68 68 70 61
57 48 51 35 31 46 53 52 53 55 55 50 59 53 69 74 72 72 73 69 67 67 64 60 58 56 55 54 49 47 46 44 42 44 61 71 72 71 68 70 58 67 68 70 70 69 70 70 55
53 44 32 25 26 38 45 50 52 58 48 49 61 64 71 72 75 73 69 72 68 66 64 61 59 58 54 54 51 48 44 40 41 48 57 70 64 71 70 71 72 73 71 67 70 72 69 72 68
18 25 23 18 17 24 46 48 49 50 56 61 67 74 81 67 68 70 72 70 71 64 64 64 59 56 55 50 46 41 38 39 42 56 62 67 66 67 74 70 71 72 70 69 71 68 66 71 69
14 19 18 18 16 25 38 54 56 51 55 67 74 72 79 72 68 64 62 66 63 64 63 60 61 55 52 46 38 37 40 45 47 60 66 68 71 70 77 80 73 74 74 74 75 77 73 73 62
15 16 19 15 19 21 41 55 51 50 60 69 72 75 76 75 69 66 62 61 65 69 64 61 58 55 47 42 38 44 46 48 62 65 63 68 75 74 77 80 78 76 74 79 76 79 75 76 67
22 24 21 17 16 24 44 47 45 52 61 68 71 73 73 78 76 70 61 62 60 67 63 64 53 49 46 42 42 55 47 61 68 73 68 68 73 78 79 80 79 74 76 79 81 80 78 75 69
25 22 19 17 17 33 48 37 46 55 62 67 69 72 74 74 68 68 62 60 56 58 61 60 56 59 55 51 48 62 60 70 71 72 71 69 68 74 80 83 76 75 76 79 78 75 78 71 69
20 19 18 16 16 32 37 38 62 55 59 64 66 69 72 65 59 66 64 61 57 57 56 56 62 65 64 64 53 68 68 75 76 71 69 69 69 69 74 79 78 76 78 73 75 64 73 76 52
18 20 21 14 14 14 21 35 56 56 59 59 64 67 69 67 68 67 63 64 56 52 52 55 53 61 65 66 59 61 62 69 74 75 72 70 67 67 74 78 77 79 79 71 76 74 76 65 60
22 21 19 17 14 18 34 40 41 54 54 58 61 63 65 67 67 60 64 60 58 52 51 52 52 53 60 65 63 64 68 68 67 75 77 73 68 68 72 73 75 79 80 71 69 77 76 48 62
28 18 15 15 16 20 30 41 45 54 60 55 58 64 64 65 66 64 56 62 59 51 49 51 53 55 57 64 65 64 63 64 63 67 74 74 68 66 71 72 77 80 78 71 64 77 82 44 57
21 16 16 15 16 17 21 35 35 55 70 61 52 53 61 60 60 61 53 45 52 56 51 49 52 54 56 58 62 63 66 64 62 63 66 71 70 62 64 69 74 78 80 76 70 66 79 49 56
17 15 18 22 24 28 22 25 28 57 51 57 50 50 51 54 56 55 43 44 48 55 56 52 52 52 54 57 60 62 63 62 64 66 69 62 64 63 62 64 69 77 83 79 67 65 69 45 46
17 23 32 27 30 25 21 27 17 28 34 37 46 46 47 51 52 49 53 49 47 48 50 54 52 51 52 54 57 61 62 62 63 64 64 55 58 63 64 67 74 76 77 74 60 56 48 37 33
22 24 36 32 31 23 24 25 22 15 27 28 27 30 39 44 49 51 48 48 41 38 42 45 46 47 47 48 52 55 60 62 64 65 65 62 56 60 62 63 67 71 75 77 60 53 46 32 35
21 22 19 23 23 25 25 22 15 19 19 30 29 26 29 34 41 45 48 46 45 39 37 39 44 41 44 43 44 50 53 58 62 64 65 66 60 54 57 67 70 65 70 77 74 64 57 26 30
16 17 22 27 28 29 25 20 23 23 21 25 35 31 28 28 33 38 42 43 40 37 36 35 37 37 38 41 42 45 45 49 53 58 61 62 63 62 55 61 69 65 68 74 75 69 55 45 26
20 18 20 20 27 28 28 23 19 17 23 18 24 25 23 25 28 29 33 36 36 36 38 35 37 38 39 41 41 44 46 49 52 53 55 59 63 60 59 53 66 63 63 70 75 70 57 56 27
15 17 19 22 24 23 25 19 13 14 12 23 19 18 18 14 18 23 25 31 36 35 40 34 34 37 36 35 39 41 41 45 48 50 52 56 62 62 60 54 64 65 61 69 72 64 65 67 64

GFSSGP_850_rhum_027.txt.gz
RH
81 95 91 96 97 83 78 69 51 54 54 60 57 56 57 81 74 84 100 94 89 89 89 88 84 79 78 74 68 67 56 48 43 43 47 46 49 51 54 54 55 74 70 68 66 70 69 66 66
97 97 98 93 86 69 67 59 54 50 63 66 69 72 70 87 94 98 99 92 85 85 89 84 72 63 68 68 64 53 47 44 44 46 45 42 46 52 56 55 54 80 75 72 68 70 70 69 71
85 91 90 81 70 64 61 59 50 61 63 60 69 75 78 91 99 99 96 88 84 82 84 79 57 51 54 54 49 45 44 45 45 46 42 43 48 56 58 56 54 79 70 69 66 70 72 74 74
78 79 96 75 56 53 52 51 56 67 72 69 70 77 93 96 100 99 96 86 80 79 81 68 53 44 50 49 45 44 42 42 46 43 51 47 56 61 65 56 75 89 66 62 64 70 73 78 80
97 95 75 65 48 49 47 51 56 53 60 66 69 82 97 100 95 95 97 86 80 91 78 62 51 50 53 47 45 44 39 43 46 49 56 54 59 64 66 68 74 73 62 68 73 75 76 80 78
86 75 56 50 46 48 49 53 55 56 67 73 73 77 98 91 94 97 95 95 81 85 93 86 59 56 53 47 46 39 40 45 48 58 58 59 65 67 67 68 66 66 66 73 76 74 75 75 72
67 55 53 48 52 49 50 53 52 56 60 64 70 73 99 100 98 95 82 90 92 91 96 93 62 56 50 48 44 41 42 45 50 60 60 67 70 71 68 64 63 65 66 73 71 69 68 68 68
74 52 54 48 51 48 49 51 57 55 60 66 68 72 92 100 96 93 92 95 94 96 93 86 69 53 48 48 42 39 40 45 50 57 70 68 69 68 66 63 62 72 71 71 72 66 66 66 69
80 57 51 38 46 40 50 51 56 59 62 62 67 71 78 98 97 96 98 99 96 97 94 72 54 46 46 45 45 42 43 43 50 52 71 73 69 71 67 60 62 74 79 78 74 67 69 67 69
74 60 42 34 32 34 47 47 55 56 57 57 69 76 85 100 98 96 98 98 98 98 93 61 41 42 45 46 46 46 46 43 46 56 73 75 67 69 65 60 61 69 72 76 72 73 72 69 67
70 49 42 32 30 37 46 49 51 53 52 53 65 78 88 94 95 92 92 92 92 88 77 56 50 44 41 40 42 45 48 45 42 50 72 68 66 74 72 69 62 61 72 72 73 71 72 63 54
61 51 40 35 32 43 45 47 48 48 43 48 66 73 84 88 87 86 85 88 90 69 52 50 47 45 42 40 42 43 45 46 41 45 67 71 72 72 67 68 60 60 65 71 70 71 69 70 58
58 40 38 37 30 25 45 44 43 50 48 54 67 74 79 81 84 84 84 85 71 56 54 52 49 48 50 52 49 46 45 46 41 43 60 71 70 72 69 71 69 70 72 69 70 76 72 67 63
27 26 21 19 18 19 38 36 47 47 57 64 71 72 74 79 80 84 81 72 57 56 55 55 54 54 54 54 52 50 48 45 41 42 54 70 65 69 73 71 74 74 73 72 74 70 71 70 70
14 14 12 12 15 16 25 38 45 46 57 64 67 71 73 77 79 80 71 63 59 58 58 58 57 58 55 54 52 51 47 43 40 45 61 66 67 70 73 77 76 77 77 76 76 77 75 73 60
14 15 15 11 13 14 21 18 28 51 54 60 63 69 74 76 76 82 83 74 65 60 59 59 61 57 54 53 48 46 42 40 42 50 68 64 68 74 72 76 80 79 78 78 79 79 74 73 65
16 15 17 15 13 20 24 18 25 50 51 56 60 64 70 74 78 81 83 72 61 59 58 58 62 60 53 50 46 40 40 43 49 50 61 62 67 74 78 74 80 76 75 81 81 79 78 68 73
16 16 14 15 12 16 23 24 30 49 48 53 58 61 66 69 69 74 79 81 62 60 60 55 57 57 55 50 44 40 46 49 51 66 69 65 68 70 75 77 80 75 78 80 82 77 82 73 68
12 12 15 14 12 17 16 19 29 46 48 51 57 59 62 63 63 68 73 79 69 62 64 59 60 51 51 50 45 41 53 49 59 68 69 71 68 68 70 75 78 80 79 83 79 78 71 75 69
14 13 14 14 12 16 17 22 26 40 47 48 56 57 59 59 64 69 74 77 79 61 57 63 56 49 49 53 48 44 48 52 64 66 69 69 68 68 67 71 78 82 81 83 80 83 77 74 46
16 13 12 14 13 13 18 17 28 38 41 47 52 53 58 57 60 66 69 74 75 62 54 55 51 48 54 60 62 61 51 60 66 72 74 71 69 69 67 71 77 80 83 83 80 78 82 77 58
17 13 13 14 15 17 16 20 26 24 42 44 48 53 54 56 59 64 65 70 73 51 49 51 50 52 56 61 66 62 53 55 57 64 68 72 73 72 68 68 72 80 81 82 78 76 81 80 59
16 15 14 13 15 16 15 20 17 34 35 41 43 47 52 52 56 61 65 48 49 58 48 47 49 52 53 54 61 63 61 57 58 61 59 64 69 72 70 70 73 76 76 82 79 75 69 78 49
15 16 16 17 15 21 17 18 17 20 27 31 37 43 49 52 55 59 63 59 58 57 56 52 49 50 53 55 56 60 64 61 61 57 60 62 65 69 72 68 68 72 75 80 82 76 62 66 45
16 16 20 20 20 19 13 18 18 14 20 16 25 38 43 51 53 56 62 65 55 55 50 50 52 48 50 52 55 57 59 61 60 59 60 64 66 64 58 67 65 65 68 76 81 70 56 50 42
17 15 15 19 14 12 19 19 15 12 13 19 19 27 37 45 50 52 55 56 48 44 46 47 46 50 51 49 51 54 56 58 59 59 60 62 64 57 50 57 62 64 68 74 79 63 45 35 34
17 20 12 14 19 16 12 12 12 13 12 15 20 21 31 38 43 48 51 44 41 40 43 45 42 41 43 46 48 49 52 56 57 58 58 60 64 64 52 57 61 59 62 71 76 74 54 43 32
14 12 19 15 18 18 13 18 12 17 14 15 18 20 22 25 35 40 48 51 44 38 38 36 35 33 35 37 44 46 45 48 52 54 56 57 61 65 64 57 59 59 63 69 71 76 69 49 36
16 17 15 14 14 13 12 9 14 17 20 16 14 15 18 22 26 30 38 44 43 47 53 42 37 34 32 32 36 40 42 45 48 53 52 53 56 62 67 65 59 56 64 66 66 73 74 58 36
14 15 16 17 24 16 13 10 10 12 14 17 13 14 19 23 26 20 30 39 45 47 48 45 41 39 34 30 32 35 36 39 42 45 47 48 51 57 64 65 63 58 57 62 62 67 72 64 39

GFSSGP_850_rhum_030.txt.gz
RH
81 90 99 99 97 68 58 54 36 43 42 44 47 44 47 67 69 89 94 99 91 86 88 86 76 70 78 74 59 59 53 46 44 47 46 51 54 55 55 67 76 68 64 65 70 69 66 67 72
100 95 96 73 79 64 51 41 43 41 46 48 52 51 51 77 93 97 100 99 91 95 87 96 82 79 73 64 59 57 48 45 46 48 46 50 56 56 58 77 74 70 66 66 67 68 68 72 76
100 94 74 62 48 51 47 40 41 46 48 47 54 55 58 85 96 99 93 96 97 83 97 92 78 72 66 61 60 51 45 45 48 44 43 50 57 59 66 76 80 67 62 62 66 70 70 70 75
94 82 68 64 38 38 36 36 40 49 51 51 51 58 77 82 90 93 94 94 90 93 96 72 72 71 61 58 52 47 46 47 46 46 47 54 61 66 77 80 82 64 61 66 71 74 78 78 80
81 70 49 39 33 34 33 36 42 40 45 50 51 68 93 96 92 92 92 85 81 87 90 81 65 56 52 49 48 46 47 46 46 55 52 59 64 66 66 77 69 61 69 74 73 76 73 70 70
80 50 38 28 30 34 34 39 38 39 48 55 56 65 94 90 94 89 85 80 76 82 80 87 48 51 51 48 48 43 44 47 53 58 57 63 66 65 66 67 62 65 73 74 74 73 72 69 70
54 35 34 29 33 32 36 38 36 39 45 47 55 58 82 87 90 85 78 77 77 78 72 81 81 65 50 48 46 43 46 49 59 57 61 65 67 66 64 64 62 64 73 72 73 69 70 72 69
53 36 34 32 32 34 35 37 40 39 44 52 55 59 77 87 85 77 75 79 78 73 70 76 82 90 92 55 45 46 46 49 56 62 67 69 69 70 67 65 71 72 72 72 65 65 67 70 70
62 39 31 28 29 31 35 35 42 43 48 47 52 52 67 86 80 76 77 81 86 75 69 71 74 85 90 90 52 43 45 48 51 73 74 80 94 92 91 73 69 74 76 69 63 63 68 72 61
46 34 26 22 21 23 32 33 40 38 41 44 52 58 75 82 83 75 78 82 90 85 69 67 71 78 85 79 79 84 78 77 83 85 88 91 94 93 89 78 70 70 76 74 67 67 70 63 53
40 32 23 21 22 24 31 34 37 34 36 40 52 65 74 78 78 76 74 76 80 78 68 69 75 83 83 78 85 82 79 77 82 75 88 95 95 85 90 85 84 86 73 79 84 85 77 69 58
38 29 26 23 22 23 26 31 33 35 30 37 50 62 70 74 70 68 69 70 72 75 72 72 78 88 85 81 80 77 75 76 73 77 67 81 86 93 96 84 86 78 80 84 83 83 86 79 74
37 24 24 25 23 19 20 28 29 34 37 39 49 60 64 66 66 65 66 67 69 73 75 76 84 92 91 91 78 73 78 76 70 78 75 92 89 94 92 93 87 85 86 82 83 84 87 77 69
20 25 22 18 14 14 15 23 28 30 38 43 49 55 58 61 62 63 64 66 68 71 73 76 86 93 87 90 92 88 86 78 78 72 75 69 85 77 89 87 84 84 86 87 87 90 90 74 73
20 14 11 10 11 12 14 20 24 26 41 45 47 50 54 57 59 62 63 65 68 69 71 76 85 91 73 72 69 84 82 79 74 71 60 65 66 72 76 87 86 85 94 72 86 88 82 76 66
13 12 14 12 10 10 12 18 17 26 39 43 46 48 51 54 55 59 62 62 65 67 73 80 79 84 86 87 84 82 81 80 72 67 76 64 66 70 74 84 90 86 85 85 95 89 80 65 62
12 16 16 14 11 11 13 16 14 23 34 38 44 46 49 53 55 57 59 62 62 70 78 86 87 85 91 91 90 82 85 77 70 68 76 70 64 70 76 92 87 81 89 90 91 83 81 67 65
15 14 14 16 12 11 14 16 14 24 28 32 41 44 47 50 53 55 59 62 68 74 82 90 90 91 92 92 93 88 79 73 71 71 74 69 61 66 70 90 78 82 85 87 89 76 79 72 69
11 12 14 13 11 12 14 14 14 19 27 29 38 42 44 46 48 52 58 61 67 73 83 91 93 92 86 90 88 81 71 70 70 72 68 63 61 66 67 87 80 91 87 88 91 86 85 70 72
12 12 12 12 10 12 14 15 13 16 26 28 34 39 42 44 46 52 56 58 62 70 78 90 91 78 56 80 83 76 70 67 68 72 80 67 67 69 66 69 83 89 86 79 83 72 76 73 60
12 13 12 12 11 11 12 14 14 13 23 28 30 35 37 41 45 49 52 55 58 64 76 84 79 78 60 83 91 87 77 75 75 72 81 82 65 66 66 69 76 87 82 83 81 82 82 66 66
13 10 10 10 12 16 11 18 14 13 19 22 26 31 34 40 44 45 49 52 55 61 71 80 85 84 78 53 81 74 70 67 66 70 74 79 70 67 68 68 69 70 86 91 82 95 84 77 60
11 7 9 10 11 13 13 15 14 12 14 16 18 24 31 34 42 44 48 48 51 59 66 76 82 67 85 57 69 85 74 69 65 67 72 84 86 71 84 70 68 71 71 84 83 81 74 86 58
10 9 10 11 10 14 13 14 14 13 16 14 15 21 28 33 37 41 46 47 50 56 64 72 79 50 56 54 51 74 81 74 68 72 72 77 78 83 70 83 67 70 75 76 91 82 72 71 59
12 13 15 15 13 13 10 13 14 10 10 12 13 14 25 32 35 39 44 49 50 52 61 68 78 61 50 51 52 56 60 66 77 78 81 74 72 70 74 65 63 78 62 69 75 80 76 58 55
13 12 11 16 10 9 9 12 11 9 9 10 12 11 18 27 34 37 41 46 52 54 55 63 68 47 47 49 50 51 53 70 81 80 75 79 71 70 77 82 60 62 61 62 68 81 74 61 32
14 14 8 8 10 10 7 8 8 9 9 10 10 10 11 21 31 35 38 43 49 55 60 58 49 40 43 45 47 49 51 54 76 75 72 77 78 72 82 85 53 60 57 60 65 76 64 54 27
10 10 12 10 16 16 8 9 9 10 11 10 10 10 12 18 28 32 36 39 44 51 58 63 40 31 34 42 45 46 47 48 51 55 57 62 74 67 77 82 71 68 60 55 61 71 70 61 46
12 12 11 9 10 11 11 8 7 9 10 10 10 10 11 16 23 26 30 35 39 45 54 61 68 51 36 34 34 40 42 45 46 48 50 53 55 60 59 64 59 76 76 55 56 65 84 60 58
10 12 12 12 17 11 11 8 6 6 7 9 8 10 11 13 15 18 22 28 34 40 46 52 60 66 50 33 29 30 33 36 40 42 45 46 50 53 56 59 62 60 83 72 57 60 78 64 63

GFSSGP_850_rhum_033.txt.gz
RH
76 96 97 99 95 72 66 52 33 37 40 36 39 45 55 58 65 93 78 67 60 69 63 72 63 63 70 69 53 50 48 47 50 52 52 58 70 56 62 70 67 64 66 68 68 64 64 70 78
83 99 98 87 96 81 58 40 47 39 38 39 40 40 42 70 73 96 86 72 62 65 80 87 61 65 74 62 60 55 48 45 50 51 52 64 59 63 76 76 70 66 66 67 66 66 68 73 74
92 84 84 66 64 89 56 38 35 35 38 42 43 50 54 73 77 92 89 94 74 79 88 83 66 77 70 61 59 50 45 46 49 47 51 55 58 62 74 75 65 62 65 68 70 69 69 73 78
96 82 62 85 81 38 38 41 33 35 36 38 45 53 69 81 80 86 88 88 98 91 85 74 77 76 63 58 50 45 46 49 46 46 49 58 85 80 77 72 58 65 70 73 74 76 75 75 70
71 56 70 86 34 30 30 30 32 39 34 36 43 58 78 83 77 82 83 90 77 83 88 83 75 72 59 51 46 46 48 47 50 48 54 61 64 62 69 61 63 72 74 75 75 71 68 65 68
74 53 64 50 29 27 27 28 32 32 34 41 51 65 77 82 81 78 79 75 80 82 75 92 74 74 54 47 46 48 47 47 56 52 57 63 61 64 62 61 68 74 74 74 72 71 68 69 72
54 49 60 26 23 27 28 26 32 28 33 37 46 61 81 83 81 74 76 81 76 66 67 86 89 66 49 46 45 45 48 52 57 58 63 64 62 60 60 58 65 70 69 69 66 67 70 63 63
42 42 33 30 54 25 22 24 26 27 36 41 48 58 75 82 75 74 76 80 76 61 65 75 83 86 90 54 43 46 49 57 57 64 66 63 62 59 60 61 63 68 67 63 63 61 55 51 52
41 45 36 21 27 22 21 21 27 32 37 38 40 54 67 77 73 73 74 77 73 58 60 63 70 79 86 90 60 46 48 52 62 68 62 83 89 89 81 69 68 68 68 62 62 52 68 68 54
33 84 53 17 15 23 21 20 25 28 32 37 39 54 68 70 67 70 75 77 69 56 54 55 63 69 75 71 64 88 82 80 82 85 64 96 86 85 88 55 65 66 68 65 62 64 70 75 74
27 54 52 17 17 20 20 21 22 24 28 34 44 58 64 65 63 67 75 77 66 53 51 54 62 70 68 64 74 74 68 68 74 85 90 84 80 86 78 80 77 71 63 79 86 86 67 58 57
27 24 33 17 18 18 19 20 22 21 21 32 44 54 59 62 57 62 68 70 64 55 51 53 61 70 68 67 67 63 61 62 63 74 69 76 84 76 91 82 77 73 75 78 84 80 78 72 65
24 21 20 20 18 16 18 20 25 24 23 29 42 52 56 58 56 53 54 57 62 56 52 54 63 74 74 76 65 60 60 61 58 70 80 78 78 77 76 81 83 80 77 81 75 78 76 74 66
20 21 19 18 16 15 14 18 21 25 26 32 40 47 51 53 50 51 50 51 53 53 53 56 67 80 83 78 78 69 65 62 62 61 69 69 76 72 80 79 79 75 82 88 81 79 79 76 67
19 18 18 18 14 12 13 17 21 23 29 33 38 43 46 49 48 48 48 49 50 53 55 59 68 80 88 88 88 80 68 64 62 62 72 88 72 73 82 80 75 78 80 70 75 88 82 64 66
19 18 18 13 12 11 12 17 15 20 27 32 35 38 42 45 46 49 50 50 51 54 60 64 65 73 87 87 88 80 69 66 62 60 66 76 66 79 83 87 78 86 77 73 78 68 62 63 53
13 18 17 13 11 11 12 14 13 18 23 28 33 36 37 41 44 47 49 51 52 57 62 68 69 68 80 88 85 85 73 72 63 59 61 71 68 68 83 83 85 72 79 76 67 76 60 53 54
15 14 13 15 12 11 12 13 13 15 20 24 31 34 37 38 41 45 47 50 51 58 64 71 72 71 79 86 90 80 72 73 66 60 60 76 81 73 78 83 88 73 82 78 80 71 65 62 57
12 11 12 12 10 12 13 13 13 14 18 20 28 32 35 36 38 40 46 48 51 56 64 73 77 78 83 84 83 75 71 70 66 61 63 75 86 92 93 89 88 75 79 76 83 77 70 64 56
14 12 11 10 10 12 12 13 11 11 15 18 24 29 32 35 37 39 44 45 48 55 66 75 82 84 86 84 79 73 68 61 62 61 66 78 89 92 93 88 87 79 91 69 68 70 72 59 55
11 12 11 11 10 10 12 14 13 11 12 18 21 27 29 33 36 40 42 44 46 54 65 76 84 86 86 82 83 80 70 63 62 62 67 79 92 91 89 95 76 90 79 81 83 77 72 61 56
9 8 9 10 11 15 11 17 14 12 12 17 19 24 26 30 34 39 40 43 44 50 62 73 83 85 86 82 78 78 70 62 59 62 61 69 84 87 88 89 92 87 78 78 85 84 80 63 55
8 6 8 9 11 11 11 14 13 11 12 13 16 20 23 27 31 35 41 41 42 47 57 69 79 86 85 86 77 78 74 62 61 59 60 67 78 88 84 93 91 88 79 76 71 90 67 75 62
7 7 7 7 8 13 12 12 13 10 11 11 12 15 19 22 27 33 37 40 41 43 51 63 79 82 82 80 67 78 75 65 60 60 60 66 70 83 86 86 89 82 89 88 88 92 90 77 70
9 9 12 11 11 12 9 11 12 9 8 9 10 12 14 19 24 31 35 39 42 42 48 57 70 78 76 76 83 70 75 69 69 62 64 61 61 62 69 72 83 86 88 91 86 85 91 55 74
10 9 10 16 11 9 8 11 10 8 7 8 9 10 12 16 23 28 33 38 42 44 49 56 66 77 85 62 78 55 56 81 79 71 64 67 60 58 59 66 78 86 91 78 88 91 95 87 40
11 11 6 7 7 7 6 7 6 6 7 8 9 10 11 14 20 24 30 36 41 44 50 55 60 63 50 54 47 48 44 53 80 77 70 75 71 58 60 70 83 90 90 90 87 91 88 83 57
9 8 10 8 13 12 8 8 8 9 9 8 9 10 10 11 17 22 27 32 38 44 48 55 57 51 25 32 33 40 44 48 56 75 77 80 73 70 64 68 82 87 88 85 85 85 90 82 78
10 10 9 8 8 10 12 8 5 7 8 9 8 9 9 10 14 20 26 29 35 40 45 53 59 67 62 34 34 40 42 45 47 52 61 64 69 75 64 75 74 70 68 77 81 79 79 81 70
8 10 11 12 15 8 8 9 5 5 6 7 8 8 9 9 12 18 24 26 29 36 41 47 54 61 66 50 36 37 39 40 47 46 50 55 56 57 66 63 72 67 62 76 82 76 74 85 92

GFSSGP_850_rhum_036.txt.gz
RH
74 86 99 99 97 87 92 74 69 70 48 40 56 64 64 56 61 78 70 68 57 54 55 60 69 74 70 68 50 52 48 50 48 53 62 65 50 59 60 61 61 62 64 66 62 63 72 72 68
93 99 99 97 99 93 77 46 49 41 37 42 49 50 53 72 68 88 78 63 53 52 62 57 66 71 68 62 54 50 48 48 49 74 79 61 59 70 65 65 63 63 66 66 66 68 71 73 67
90 96 97 90 92 83 55 41 38 35 38 40 44 49 54 80 82 82 70 57 56 73 81 55 60 71 70 65 57 48 47 47 44 52 56 58 51 70 65 59 62 64 66 68 68 68 71 76 76
89 84 76 92 86 49 47 66 30 36 39 42 47 61 71 76 80 67 62 54 51 79 81 60 62 70 76 62 50 45 46 45 44 47 57 64 66 72 60 63 69 70 70 70 70 71 71 63 62
86 76 93 86 72 41 34 34 30 31 34 43 49 66 76 76 71 68 74 71 76 80 94 58 70 74 58 53 45 45 46 46 49 50 59 61 57 65 56 68 70 70 70 65 64 65 64 67 65
90 94 93 87 64 31 26 26 31 36 39 50 61 72 82 77 74 77 77 86 88 84 89 66 69 72 54 46 44 46 46 52 52 55 60 61 61 59 57 69 69 68 65 63 63 62 60 59 59
74 97 85 59 33 31 28 28 34 27 33 49 58 67 85 80 77 76 86 78 80 73 88 65 74 62 51 44 45 46 47 58 55 58 61 58 60 56 54 66 67 65 63 61 61 58 55 56 55
56 96 89 76 27 26 22 24 28 31 36 45 58 67 78 81 77 78 72 76 67 64 86 87 86 54 46 43 43 46 50 57 56 63 65 67 61 62 54 59 65 62 59 56 57 58 50 47 50
43 64 69 50 28 23 18 22 29 32 35 37 50 64 75 78 75 75 76 75 65 65 74 82 88 64 80 48 41 46 52 55 61 67 64 75 81 86 83 66 61 64 61 59 61 64 71 58 58
34 87 66 42 37 33 19 21 25 27 30 44 56 67 73 75 74 74 74 71 63 62 64 69 74 83 84 85 44 45 48 55 76 86 48 74 82 85 92 58 59 61 66 65 55 68 76 75 83
30 46 33 29 27 22 19 18 22 23 29 44 57 64 68 70 69 78 74 64 66 56 55 61 68 74 71 72 49 65 69 72 83 77 50 78 90 82 82 72 74 71 76 73 58 65 71 75 71
28 45 36 30 26 21 28 28 17 21 27 41 54 59 63 66 70 67 69 63 60 50 51 56 65 68 66 68 59 69 65 70 72 73 70 85 77 78 60 75 82 84 87 73 76 74 71 60 49
22 46 34 29 22 28 30 40 30 22 29 38 50 55 59 63 68 69 66 63 56 50 49 55 65 58 65 71 60 63 61 60 59 66 55 78 74 83 70 85 78 81 83 81 84 79 74 68 53
20 24 25 26 18 14 17 32 33 20 25 36 46 52 53 52 62 64 65 63 62 50 48 55 63 59 67 69 64 65 59 57 61 62 64 71 88 83 79 81 77 78 80 75 84 76 76 69 62
17 20 18 18 15 14 12 16 22 27 27 34 42 47 50 48 51 54 58 60 52 52 48 52 63 69 68 68 73 66 66 64 58 63 64 62 80 76 73 80 78 78 77 72 71 66 70 68 60
18 20 23 17 16 14 12 16 16 28 27 32 37 41 46 46 42 45 49 52 53 50 49 54 61 72 68 70 73 67 70 64 62 60 63 61 64 78 71 79 84 66 74 74 69 64 71 55 58
19 24 23 20 15 13 12 14 14 22 25 30 33 36 40 44 41 43 42 45 45 49 51 55 59 64 74 78 81 73 73 69 63 61 60 64 56 64 74 74 77 78 74 73 70 65 65 57 52
22 18 18 19 13 12 12 12 14 16 23 28 31 33 36 40 41 42 42 43 45 50 53 56 61 67 71 76 81 85 77 71 67 62 59 61 65 57 69 83 82 80 76 70 64 65 58 60 55
16 13 14 13 12 12 13 12 16 16 30 24 28 32 34 36 38 42 44 45 47 52 56 60 63 66 71 75 81 86 76 74 71 64 60 61 68 63 61 81 83 78 75 83 64 62 62 63 55
18 16 12 10 10 13 13 12 12 14 21 21 25 29 32 33 35 40 44 45 48 53 58 61 64 69 76 73 80 76 76 70 69 64 61 61 68 78 68 69 86 85 79 71 60 69 75 62 51
18 18 14 11 9 11 14 15 14 12 14 16 21 26 30 32 34 37 43 43 46 53 57 62 66 72 74 76 81 79 72 68 65 63 61 64 68 74 76 81 75 83 82 84 74 45 66 61 50
15 13 12 12 11 14 14 20 18 12 12 15 16 22 26 30 33 36 41 42 45 50 55 60 65 71 78 76 82 80 73 70 64 62 61 65 68 68 83 81 70 79 69 79 73 56 69 71 51
9 7 10 10 11 11 11 14 14 13 14 14 16 19 24 27 31 36 38 42 44 47 60 61 64 70 81 74 85 80 78 70 62 61 61 62 64 72 73 86 70 62 71 91 80 74 64 58 64
6 7 6 7 9 15 12 13 15 13 15 13 13 15 22 24 28 34 38 40 42 45 58 70 67 71 76 80 71 84 77 72 64 60 62 60 67 79 78 85 83 70 63 88 82 70 58 66 59
7 8 12 13 12 14 10 12 13 9 10 11 11 14 20 21 26 31 39 39 42 44 53 65 72 72 70 70 60 66 82 75 66 62 57 62 66 70 72 67 84 81 68 70 82 67 72 47 58
8 8 11 18 14 10 9 12 12 9 7 7 9 12 15 19 21 29 37 40 42 43 49 60 64 63 63 63 63 53 68 79 58 62 62 58 64 66 67 66 66 60 59 70 82 66 82 70 42
9 10 7 8 8 8 7 8 6 8 8 8 7 9 13 15 18 26 32 39 42 42 47 55 63 61 61 55 64 54 54 57 48 60 62 65 60 62 60 59 63 65 68 62 72 74 68 80 64
8 7 10 9 16 16 10 11 10 10 10 9 9 8 10 12 16 22 30 36 41 42 44 51 59 59 50 52 41 36 30 36 42 50 63 63 71 59 62 59 60 64 69 76 76 70 67 80 75
9 10 10 8 9 12 13 8 7 12 10 10 9 8 9 11 15 20 29 32 39 43 45 49 57 63 64 53 32 31 34 31 31 42 55 64 68 77 58 78 66 62 66 67 78 75 73 70 75
8 10 11 13 18 10 11 9 6 8 9 9 8 8 9 10 15 18 24 30 36 42 45 49 55 62 64 61 58 46 39 30 30 36 43 54 64 63 75 63 79 71 68 58 63 63 59 81 77

GFSSGP_850_rhum_042.txt.gz
RH
80 73 89 98 99 100 92 80 71 79 76 57 48 54 63 82 79 82 83 74 69 67 62 55 56 44 44 50 46 47 50 57 50 52 55 57 58 68 81 87 60 58 60 66 63 51 40 53 55
82 86 96 97 99 97 87 68 83 83 69 60 62 63 69 91 98 99 86 74 63 62 57 56 59 44 45 52 46 47 56 75 54 59 62 61 61 64 62 62 63 63 62 66 70 72 59 42 74
80 89 95 98 95 93 88 66 70 63 69 62 60 68 76 98 100 92 75 66 57 59 52 57 53 44 48 46 48 45 51 53 52 52 62 59 58 60 63 66 66 65 65 69 65 60 67 52 66
87 99 91 95 90 83 85 63 58 58 57 61 66 76 85 93 86 80 71 60 52 55 60 67 50 44 45 45 45 43 45 52 53 56 85 59 65 64 67 66 63 62 61 61 61 63 64 64 79
95 88 91 86 90 75 71 80 63 58 64 63 67 86 92 86 82 69 67 57 53 67 65 67 50 46 44 42 43 44 45 53 56 55 64 60 68 66 64 59 59 59 62 63 64 63 63 66 75
85 84 90 93 80 76 72 66 67 60 64 73 75 77 80 79 70 66 67 61 62 65 64 60 62 55 43 41 43 48 46 55 58 56 60 59 67 67 63 61 58 59 64 63 62 63 65 68 71
80 92 87 84 82 79 76 76 71 66 64 70 69 75 86 73 64 70 76 70 71 60 63 59 64 49 41 42 43 51 49 55 56 59 58 59 68 68 62 60 55 57 58 56 57 62 69 71 75
68 79 83 80 85 78 58 70 72 60 65 71 64 77 81 70 58 85 89 93 89 74 61 55 50 44 40 41 44 53 50 58 58 58 58 57 64 67 64 61 59 56 56 58 47 55 65 74 77
66 80 86 75 70 54 54 62 60 60 69 64 68 68 67 59 58 85 94 84 84 72 60 54 43 40 39 40 47 53 54 60 58 55 58 58 57 66 65 63 61 58 58 65 68 64 58 72 81
80 96 76 56 54 56 55 60 57 62 65 70 72 61 66 55 56 77 95 94 90 75 63 49 41 38 37 40 49 52 58 58 56 65 74 63 56 57 61 61 64 63 60 66 73 71 71 67 70
76 85 60 47 53 40 34 55 59 64 77 74 76 79 81 62 66 80 94 89 84 67 64 47 38 36 35 40 47 58 60 56 53 62 68 72 60 55 60 59 68 73 70 62 70 70 64 74 76
66 62 50 43 39 45 34 41 57 58 64 71 67 79 78 72 79 75 82 86 82 72 55 43 37 36 34 39 44 65 66 65 62 63 63 59 70 72 70 71 73 74 72 69 72 67 58 69 70
47 44 45 40 36 34 31 33 51 58 71 76 78 78 76 73 76 79 81 82 78 69 49 37 35 36 35 37 48 63 62 70 67 64 61 54 66 70 71 72 73 72 71 73 66 68 56 59 62
38 39 34 31 30 34 36 39 50 69 77 78 77 76 78 76 71 72 79 77 73 66 58 36 40 38 37 57 58 64 67 71 74 70 59 68 74 74 69 72 75 78 72 70 61 56 62 59 62
32 38 34 32 29 36 36 39 64 71 74 77 78 78 77 75 64 68 70 71 69 65 55 43 46 46 54 57 62 67 69 70 68 70 65 63 66 67 67 75 72 66 71 68 63 60 53 49 49
31 36 45 34 31 31 32 46 60 70 72 75 77 77 76 77 70 66 69 72 66 61 55 54 54 51 58 65 62 67 73 66 64 66 64 65 64 61 73 74 75 72 72 78 71 64 55 50 56
31 41 39 37 31 30 31 47 58 68 69 71 73 72 74 73 66 65 66 68 68 61 56 58 61 57 59 61 60 69 67 67 67 63 60 63 61 61 62 74 80 67 71 69 65 68 60 59 55
38 43 36 34 25 30 33 48 60 63 67 69 70 69 69 71 67 63 60 61 67 62 61 56 61 60 57 57 54 63 66 64 64 70 67 64 62 54 62 68 76 70 70 69 68 69 60 61 57
28 34 36 29 22 23 29 50 59 57 61 65 68 69 68 70 61 64 62 59 64 65 62 60 57 61 59 60 57 56 66 61 64 69 71 66 62 63 61 68 64 71 68 73 74 68 62 58 55
22 25 32 29 24 22 26 51 53 51 56 59 62 65 66 67 65 63 64 61 59 62 61 60 56 59 61 60 55 51 60 56 61 66 72 68 64 62 66 62 72 71 73 79 67 64 62 59 52
22 24 24 33 26 19 22 42 50 47 51 53 57 58 60 58 62 67 64 57 55 60 58 59 55 54 56 57 55 48 47 54 57 63 69 66 66 64 62 60 70 73 75 81 72 61 62 51 52
24 17 18 22 29 38 18 34 55 54 60 55 55 60 58 56 54 60 63 60 54 59 56 56 55 53 55 56 54 55 44 43 45 53 65 67 67 70 64 62 62 68 79 80 79 60 63 51 51
20 17 18 21 28 29 27 30 41 57 65 54 50 49 53 57 53 52 56 56 55 58 55 49 55 53 54 56 56 50 55 44 48 58 67 67 64 69 66 65 64 73 71 78 77 53 68 61 53
18 21 23 23 27 37 28 26 28 60 56 51 52 46 46 47 50 49 49 52 55 58 56 54 54 54 54 55 58 57 52 53 53 68 71 73 63 61 63 69 62 72 68 67 69 73 59 69 53
23 29 38 37 33 33 23 25 21 32 44 44 48 53 54 47 45 47 48 49 52 52 51 55 53 53 54 56 58 58 52 55 50 59 68 72 67 63 64 68 72 68 69 60 62 77 69 60 56
27 26 42 45 36 27 18 24 20 14 21 34 41 49 48 44 43 44 47 47 49 45 47 50 52 52 53 55 56 56 53 55 54 55 60 67 66 64 63 66 72 71 68 66 59 75 78 73 54
26 29 21 21 20 22 19 14 11 10 10 17 28 42 42 43 42 42 46 47 49 47 45 46 49 51 52 52 55 58 57 56 51 49 58 57 61 65 64 64 64 69 71 70 62 59 60 69 57
17 17 23 23 25 24 20 17 19 12 10 10 17 30 35 39 41 40 43 48 47 46 42 43 46 48 49 52 53 55 57 56 53 50 54 56 57 63 62 65 66 68 69 68 66 60 56 65 63
24 17 16 17 23 25 25 18 10 13 13 11 12 22 31 34 37 38 42 46 43 47 47 42 47 47 49 49 49 52 56 63 62 61 51 53 53 59 64 64 66 70 68 70 70 67 63 54 56
20 19 16 16 22 24 24 15 13 12 10 9 8 13 28 32 35 37 41 43 46 51 49 43 44 47 46 43 46 50 55 60 63 58 54 48 53 54 62 64 68 71 73 69 66 65 65 63 51

GFSSGP_850_rhum_045.txt.gz
RH
72 68 78 94 100 99 92 81 70 84 78 59 55 55 66 83 76 88 84 73 69 57 58 59 52 45 50 46 49 51 66 56 62 71 73 77 67 65 76 58 59 62 67 55 42 46 59 71 56
74 86 97 99 100 98 87 76 80 70 61 58 58 68 76 92 99 98 86 75 66 53 63 55 45 47 47 46 51 63 49 56 69 79 72 79 82 82 80 61 62 66 72 75 64 50 69 74 79
85 94 97 96 95 92 88 80 70 71 70 61 67 75 86 96 99 96 78 74 63 56 57 52 43 50 46 46 55 74 54 57 76 76 85 82 76 64 64 64 66 69 74 70 71 69 61 78 82
94 99 98 99 91 77 84 88 66 61 69 65 71 82 86 97 99 83 74 67 57 54 58 47 43 52 46 46 50 69 50 54 83 77 61 62 62 67 68 68 66 66 64 66 68 71 66 80 81
100 94 93 91 84 74 72 80 83 70 61 67 69 91 99 97 87 77 73 60 53 54 54 45 44 45 47 43 44 49 53 57 87 72 67 65 64 60 60 61 62 60 62 65 66 69 69 80 76
95 86 92 91 78 67 76 88 78 66 75 79 80 86 96 90 80 75 63 59 51 55 52 46 45 43 45 43 46 48 57 54 64 59 68 66 64 64 64 62 60 59 60 63 67 70 69 76 80
84 91 86 80 81 71 71 86 84 73 73 72 73 83 98 93 80 74 60 56 62 62 59 48 46 44 44 44 49 50 59 58 58 59 64 66 62 64 63 55 53 56 56 60 65 67 67 73 82
72 80 89 79 84 79 56 73 86 73 71 76 66 88 98 95 77 69 65 69 68 63 53 57 48 42 42 45 51 52 58 57 57 57 60 65 61 63 66 54 53 56 57 51 59 74 73 74 79
64 79 84 75 74 64 63 69 78 75 72 66 66 66 76 78 74 72 76 72 68 68 59 49 43 41 42 45 52 52 57 55 56 55 56 62 60 63 65 60 54 62 67 69 69 68 76 72 69
83 94 73 55 57 63 59 65 76 69 66 70 68 65 74 72 85 82 87 84 77 66 67 51 41 40 41 47 50 53 56 55 56 58 57 58 61 62 64 64 62 60 62 69 74 70 67 74 70
79 82 66 50 53 57 58 59 61 66 78 70 73 70 72 87 91 86 87 75 72 61 64 47 40 40 40 48 48 56 58 58 64 72 61 57 56 57 61 65 68 66 68 69 72 69 72 70 71
84 70 67 46 44 51 45 54 60 66 63 65 59 61 68 89 90 85 84 75 73 59 58 43 39 37 39 48 52 58 54 53 60 66 71 67 55 58 60 70 74 73 71 71 67 66 74 71 68
66 62 56 58 56 46 38 52 60 64 67 68 69 70 68 81 83 82 72 79 74 63 58 42 36 34 37 43 58 63 62 63 64 62 61 66 73 70 67 73 75 70 71 73 71 65 63 64 60
44 46 46 45 44 37 37 40 55 72 73 71 76 70 67 66 69 89 79 72 72 62 55 43 34 33 35 41 59 64 70 73 68 65 67 66 72 72 71 71 73 75 74 71 69 70 68 60 58
34 42 37 36 39 37 37 56 64 76 77 79 79 79 73 76 76 82 72 66 64 62 49 42 33 33 34 43 56 68 69 72 73 63 65 72 73 69 67 70 66 65 65 63 63 64 60 60 62
34 38 50 37 34 33 34 52 74 78 78 79 80 81 77 81 83 78 80 72 66 62 58 41 33 34 37 51 63 68 70 70 70 70 66 67 67 64 68 71 73 68 65 64 58 59 60 60 58
28 46 49 41 33 33 36 65 72 78 77 78 77 77 78 78 79 78 78 76 64 60 61 56 35 38 37 52 64 67 71 65 67 68 68 68 66 64 68 74 72 71 67 64 68 57 54 57 57
37 43 38 39 32 36 42 50 73 75 77 78 78 76 76 77 74 73 74 74 71 61 62 51 46 45 49 54 62 67 74 69 67 64 68 68 64 59 61 63 77 66 68 70 70 62 60 54 57
30 36 38 34 29 32 39 46 75 72 74 77 78 77 76 76 73 63 65 72 70 64 62 54 55 55 55 58 62 67 73 71 68 63 70 69 64 63 58 63 71 68 67 69 70 68 61 61 58
24 27 32 29 27 27 31 40 63 70 71 72 76 76 76 75 73 69 65 68 71 67 66 60 55 56 60 57 58 57 64 68 65 65 68 73 68 65 64 64 69 72 70 70 78 71 62 59 55
24 26 26 29 29 25 37 47 56 68 65 68 71 72 72 72 71 71 67 67 71 69 68 66 60 58 57 60 60 61 60 65 64 66 67 70 70 68 66 63 63 74 66 67 72 67 64 61 54
33 21 21 24 29 40 25 51 75 68 71 65 67 71 70 71 71 70 69 63 64 62 66 66 63 63 59 59 60 60 60 56 59 62 65 67 69 66 67 65 63 71 73 67 77 65 66 60 52
25 19 22 22 27 32 28 40 64 62 69 67 62 65 68 70 69 69 65 56 57 64 60 64 65 64 60 57 60 60 60 51 49 54 54 66 70 66 65 67 64 62 67 76 78 76 67 55 50
20 20 22 26 33 38 27 37 38 62 57 59 56 57 60 64 67 65 60 60 56 59 58 57 59 60 58 56 60 58 57 48 40 39 43 60 65 66 62 64 68 65 67 71 76 73 63 68 54
24 31 42 44 46 38 28 36 29 45 44 44 53 51 50 58 60 59 62 66 58 62 55 52 55 57 58 57 57 56 56 55 44 38 42 53 67 65 62 60 69 67 64 70 74 76 70 66 68
31 31 52 55 52 38 29 37 29 28 35 39 40 44 44 52 56 58 58 57 56 58 59 54 53 53 54 56 56 55 56 58 56 44 42 50 61 68 64 61 66 73 68 68 70 71 78 64 63
35 36 29 34 25 29 28 19 15 20 31 40 41 40 43 46 50 51 55 55 58 56 57 52 56 54 53 50 55 55 56 58 58 48 46 49 59 65 63 64 64 67 75 72 69 68 70 78 69
29 26 34 32 41 32 27 19 22 17 18 30 44 41 39 43 47 46 51 53 54 50 49 50 51 50 52 54 54 55 55 56 57 55 49 50 56 65 65 65 66 66 67 74 70 69 62 61 59
27 30 28 32 32 36 29 22 17 15 14 16 32 34 37 43 46 39 44 50 51 51 52 49 52 50 53 53 54 54 54 55 58 57 52 49 52 59 61 61 65 66 66 71 72 66 67 66 55
39 28 23 32 37 28 28 23 12 12 12 14 13 21 22 36 43 42 40 47 49 51 55 52 53 52 51 48 50 51 52 54 56 55 52 51 51 57 58 63 62 66 66 70 70 71 70 70 67

GFSSGP_850_rhum_048.txt.gz
RH
68 62 77 99 100 98 92 82 70 86 77 60 58 57 67 85 75 87 85 75 60 58 61 63 66 62 52 48 51 56 66 72 74 73 74 72 71 73 66 67 60 74 70 46 53 77 68 49 52
71 69 98 98 98 99 89 76 87 75 65 58 63 70 78 95 96 92 88 76 56 54 61 58 76 54 49 51 69 68 71 72 70 78 76 71 75 70 58 65 70 77 74 68 53 59 58 53 47
72 89 100 96 97 92 89 77 79 74 68 57 74 78 89 97 94 83 77 71 56 58 61 48 76 51 50 68 69 52 68 72 72 72 75 79 77 75 65 63 71 79 73 70 55 77 80 80 76
93 99 99 98 92 79 85 82 76 75 70 60 74 88 91 97 96 79 73 66 48 60 50 49 76 48 49 75 75 53 76 74 78 79 80 73 71 67 67 69 75 68 67 67 64 63 76 77 76
100 97 96 96 84 76 85 84 77 65 68 77 71 94 97 100 90 78 73 61 48 55 46 52 62 48 48 72 60 51 74 76 65 79 74 73 80 70 73 70 61 63 66 64 66 72 79 80 78
99 90 94 90 80 68 76 88 86 66 85 87 90 94 99 94 84 89 73 60 50 46 44 55 50 51 46 53 54 53 67 78 67 78 64 64 82 68 62 63 61 60 62 67 67 69 75 80 78
91 92 86 78 80 75 75 81 75 76 83 78 82 90 100 95 84 88 68 57 52 49 44 50 47 59 46 47 52 56 54 66 72 68 65 63 61 57 57 58 58 62 66 69 68 66 67 82 79
80 84 85 81 83 79 83 79 75 79 74 75 68 93 98 98 82 75 69 57 54 52 45 46 45 46 47 50 53 58 56 57 63 65 64 61 58 57 60 62 59 59 62 68 72 66 66 73 77
71 83 83 78 82 75 78 71 78 78 81 68 68 69 89 97 74 74 70 66 66 62 49 48 44 45 47 52 53 58 59 57 58 64 62 60 58 55 55 64 65 73 73 66 70 71 69 65 67
83 94 74 60 57 74 70 64 81 80 75 71 72 74 82 87 77 74 77 90 77 71 61 55 43 44 47 52 52 60 58 57 55 57 61 60 61 61 58 59 63 65 75 82 69 68 66 65 67
82 92 67 52 54 59 56 63 72 70 76 70 87 82 87 82 78 76 87 72 60 50 56 50 43 43 45 52 54 59 56 54 55 54 56 60 60 63 64 64 61 72 76 75 72 71 70 65 69
90 77 73 54 50 54 53 59 64 66 65 64 64 65 75 78 77 74 77 62 60 52 51 47 42 41 46 52 54 60 58 61 67 62 56 53 57 59 66 72 76 76 72 72 69 71 68 70 65
78 67 64 61 56 57 52 54 64 67 66 67 69 84 85 79 81 73 68 58 54 50 49 42 40 39 46 51 56 58 54 60 65 66 67 60 57 64 66 72 73 75 73 73 68 69 66 63 66
52 56 56 52 49 48 53 52 58 73 69 70 76 86 90 85 81 77 66 63 57 49 48 40 36 37 43 52 58 59 61 62 62 62 61 66 68 73 70 74 74 75 75 74 69 65 62 57 57
45 43 36 37 42 46 40 66 64 72 68 74 77 82 88 83 82 67 58 59 54 49 48 40 34 34 39 47 64 69 71 70 67 71 67 70 70 71 72 71 75 75 73 69 62 68 60 56 57
35 38 49 39 39 38 41 57 76 72 73 74 72 74 80 83 79 68 63 64 57 52 51 45 35 33 36 43 62 68 72 74 75 69 70 68 67 70 74 76 68 68 68 67 66 61 58 60 62
32 56 53 45 35 36 41 68 78 78 78 78 73 70 70 75 81 79 62 62 58 52 51 48 37 33 33 40 55 68 70 70 72 75 68 69 72 70 74 74 71 66 66 68 65 58 60 65 63
42 42 43 43 33 41 46 56 82 80 81 80 78 75 72 74 79 78 72 64 62 57 51 45 38 32 33 46 63 67 70 69 68 70 69 70 71 71 70 76 74 62 61 64 63 59 60 63 57
34 40 41 36 30 45 48 62 85 80 80 81 81 80 79 76 82 79 73 64 65 65 60 54 44 32 36 51 59 66 66 68 65 64 68 70 69 66 65 67 76 65 63 68 68 63 58 58 56
30 27 35 31 28 35 41 48 75 79 80 79 80 79 80 79 80 84 79 75 72 67 59 61 60 37 40 41 53 61 62 68 70 68 65 70 70 67 66 67 68 68 65 70 72 69 64 61 59
32 33 28 32 26 28 32 42 72 76 75 76 78 79 78 78 78 79 80 79 75 70 63 60 58 40 46 49 57 60 67 74 73 70 67 67 69 68 68 70 70 72 75 70 74 68 64 61 57
41 26 26 25 29 40 30 53 65 84 81 75 75 79 79 79 77 77 75 75 76 65 66 60 58 51 55 57 56 59 59 64 69 69 66 66 66 68 70 71 69 67 73 70 75 69 66 66 62
23 24 25 25 31 29 28 36 43 76 94 81 72 74 75 76 75 76 70 64 70 66 64 65 61 59 55 56 58 60 60 62 63 66 68 67 68 68 68 68 69 66 68 78 74 80 62 66 55
23 23 27 30 35 42 31 31 40 75 73 76 68 69 70 72 72 71 67 72 66 70 64 65 62 63 60 60 61 58 60 60 62 62 61 63 63 64 66 66 70 71 70 72 75 80 64 67 52
27 31 47 46 48 42 33 31 35 30 56 58 64 64 66 68 68 67 67 71 67 69 66 58 58 64 60 58 61 64 58 59 60 56 45 49 53 50 60 65 66 69 68 69 77 72 71 63 64
31 34 52 56 56 39 37 44 34 21 32 45 48 56 60 63 68 66 66 64 58 61 67 58 58 60 60 53 55 60 58 57 59 58 50 40 36 37 51 60 63 65 73 68 76 69 69 72 55
35 39 32 42 34 44 33 30 21 20 25 42 44 45 54 56 60 66 64 65 61 55 57 58 52 53 55 52 51 54 56 56 57 57 58 52 37 39 55 61 64 64 68 76 75 70 65 74 72
34 28 37 46 52 44 38 26 34 24 29 36 46 43 44 52 52 57 60 63 59 55 53 56 56 52 49 50 51 52 54 55 55 57 58 60 49 42 51 59 64 64 66 69 77 77 69 66 70
30 37 38 35 43 50 42 33 23 25 23 21 29 40 39 44 47 50 54 45 55 57 55 53 54 55 55 52 51 52 54 53 55 56 57 61 57 47 46 56 59 64 66 67 70 76 70 67 59
48 46 38 42 48 40 43 36 15 16 18 18 15 20 17 31 41 41 44 52 53 54 55 54 50 52 51 52 51 52 53 53 52 56 56 60 60 53 47 51 59 59 64 67 68 72 75 69 66